カタログに戻る

STARLINK-4005

運用中通信VLEO
NORAD 52686·PAYLOAD·🇺🇸 United States

打ち上げ May 18, 2022 から Cape Canaveral Space Force Station

Loading…

次のパス (今後24時間)

TLE

最新Source: CelesTrak SupGP

元期: Sep 14, 2026, 13:38 UTC

1 52686C 22053AG  26257.56854167  .00184120  00000+0  68893-2 0  2571
2 52686  53.1591  14.6112 0001316  86.3419 297.0458 15.26686929    10

AllMySatでSTARLINK-4005をリアルタイム追跡

Download on the App Store